TIME,DELAY(SENSOR),PRES,OXYGEN,RAWTEMP,T(OPTODE),TCPHASE,FLUOR,BETA(BETA700),BETA(BETA412),BETA(BETA440),CDOM,C(CSC),ED(ED412.40),ED(ED444.00),ED(ED489.70),ED(ED554.30),LU(LU411.80),LU(LU443.40),LU(LU489.60),LU(LU554.10),COMP,TILTX,TILTY,CHECK
1351740434,5810,838.7199707031250000,41.4696998596191400,654.7147216796875000,4.8018188476562500,54.7104988098144500,53,101,88,77,81,15157,2147752658,2147418861,2148009728,2147873517,2147640356,2147059830,2148253540,2147197778,377,4,13,33227
1351744030,5809,881.8200073242188000,44.7608413696289060,664.2877807617188000,4.4867100715637210,54.3399009704589840,53,100,86,80,81,15158,2147754340,2147421613,2148007131,2147874038,2147643017,2147061028,2148262985,2147199634,492,4,13,18876
1351747630,5809,907.4799804687500000,45.2032699584960940,664.9332275390625000,4.4654288291931150,54.2852096557617200,52,100,89,79,81,15159,2147756781,2147421440,2148011026,2147873837,2147642925,2147057362,2148257782,2147197092,3251,4,13,10120
1351751230,5755,928.5900268554688000,45.8631210327148440,666.3079223632812000,4.4200859069824220,54.2089805603027340,53,100,84,79,81,15159,2147759552,2147422326,2148007277,2147875072,2147641270,2147059830,2148258806,2147199360,318,4,13,55269
1351754830,5808,941.4899902343750000,45.6216583251953100,665.8173828125000000,4.4362659454345700,54.2384185791015600,53,99,88,79,80,15161,2147759616,2147421430,2148008448,2147872137,2147640694,2147057664,2148257828,2147197814,3246,4,13,17109
1351758430,5810,936.8300170898438000,45.4313507080078100,666.1868896484375000,4.4240760803222660,54.2670783996582000,53,99,86,80,81,15155,2147759168,2147423195,2148006866,2147870208,2147641865,2147063661,2148257572,2147195794,944,4,13,982
1351762030,5810,960.8499755859375000,46.9125595092773440,669.8037719726562000,4.3046760559082030,54.0993194580078100,53,98,86,79,81,15147,2147757668,2147420406,2148007460,2147874258,2147645750,2147057846,2148256182,2147193645,49,5,13,34492
1351765630,5807,960.7700195312500000,47.3626785278320300,670.3583984375000000,4.2863578796386720,54.0448188781738300,51,99,89,79,81,15145,2147759149,2147420580,2148008886,2147870784,2147647094,2147061156,2148258669,2147197677,3585,4,13,53459
1351769230,5807,955.7100219726562000,47.7238082885742200,671.8572998046875000,4.2368240356445310,54.0086593627929700,52,97,88,80,81,15144,2147755072,2147422555,2148009206,2147874102,2147643574,2147062281,2148260160,2147195163,3533,4,13,15641
1351772830,5811,983.4500122070312000,48.3396301269531250,674.1013183593750000,4.1626210212707520,53.9517593383789060,53,100,85,80,81,15146,2147757915,2147419282,2148006518,2147874550,2147642944,2147062107,2148259282,2147195593,52,5,13,42072
1351776430,5809,991.2600097656250000,48.6343688964843750,674.1055297851562000,4.1624789237976070,53.9140892028808600,53,100,85,78,82,15148,2147758829,2147423405,2148009654,2147873846,2147645476,2147057682,2148259337,2147199131,172,4,13,64036
1351780030,5809,997.5499877929688000,48.6069488525390600,674.0482177734375000,4.1643748283386230,53.9118309020996100,52,99,89,80,80,15146,2147757760,2147423204,2148009664,2147874404,2147641910,2147056886,2148261394,2147198390,84,5,13,64676
1351783630,5809,986.4500122070312000,48.2465782165527340,674.1005249023438000,4.1626448631286620,53.9618415832519500,53,99,89,79,81,15144,2147758985,2147421714,2148012169,2147872521,2147644260,2147061952,2148263250,2147200173,3256,4,13,37345
1351787230,5807,987.7899780273438000,48.3976593017578100,674.1179809570312000,4.1620659828186035,53.9420318603515600,53,99,86,78,80,15144,2147758180,2147422180,2148010441,2147871597,2147644086,2147064749,2148262774,2147195894,3084,4,13,22903
1351790830,5807,996.2600097656250000,48.2492408752441400,673.4296875000000000,4.1848349571228030,53.9532508850097660,53,97,87,79,82,15145,2147759725,2147421796,2148008795,2147872018,2147644260,2147056749,2148264676,2147194852,300,4,13,31424
1351794430,5806,1001.3099975585938000,47.5562286376953100,672.0955200195312000,4.2289490699768070,54.0386886596679700,53,99,87,78,82,15143,2147757586,2147423360,2148011913,2147871926,2147643026,2147058541,2148260306,2147197138,3522,4,13,19829
1351798030,5810,1001.7899780273438000,47.4514007568359400,672.4592285156250000,4.2169251441955570,54.0590209960937500,52,97,91,79,81,15143,2147759250,2147420342,2148010139,2147873627,2147643410,2147060845,2148259291,2147196992,172,4,13,4714
1351801630,5809,1002.4000244140625000,47.3763504028320300,672.2457885742188000,4.2239818572998050,54.0666999816894500,54,100,86,79,81,15144,2147758016,2147421924,2148009252,2147873216,2147641289,2147058093,2148260196,2147195035,348,4,13,3825
1351805230,5811,1000.9000244140625000,47.3744697570800800,672.1845092773438000,4.2260069847106930,54.0658912658691400,53,105,87,79,80,15143,2147760045,2147420653,2148010898,2147874788,2147643776,2147055250,2148263798,2147194934,88,5,13,44982
1351808830,5809,1000.5399780273438000,47.3491096496582000,673.1240844726562000,4.1949391365051270,54.0810317993164060,53,98,90,79,81,15142,2147756754,2147421083,2148009938,2147874112,2147644461,2147048228,2148261056,2147198354,3493,4,13,54177
1351812430,5808,995.5499877929688000,47.6063194274902340,673.4749755859375000,4.1833357810974120,54.0475311279296900,53,101,83,79,82,15138,2147757732,2147421732,2148008301,2147872512,2147644918,2147055680,2148262034,2147195218,245,4,13,1690
1351816030,5809,997.0399780273438000,47.8601188659668000,674.3118896484375000,4.1556549072265625,54.0209197998046900,53,100,87,78,82,15140,2147757677,2147417097,2148009554,2147873664,2147644297,2147053165,2148261540,2147196297,3531,5,13,5587
1351819630,5807,994.1500244140625000,48.2486801147460940,675.1638793945312000,4.1274638175964355,53.9763793945312500,53,100,87,79,81,15144,2147755062,2147419428,2148009856,2147869513,2147644690,2147060032,2148260946,2147197284,135,4,13,29029
1351823230,5808,1001.1300048828125000,48.6246795654296900,675.1652221679688000,4.1274218559265140,53.9255790710449200,53,101,85,80,81,15141,2147756123,2147418505,2148008347,2147875154,2147645056,2147054857,2148261083,2147197440,304,4,13,23861
1351826830,5809,1009.7500000000000000,48.5665702819824200,674.9722900390625000,4.1338019371032715,53.9283599853515600,53,99,85,79,81,15139,2147757714,2147422985,2148010404,2147874944,2147645403,2147059986,2148258395,2147194304,3484,4,13,60555
1351830430,5813,1004.9099731445312000,47.2916908264160160,673.3386230468750000,4.1878490447998050,54.0880203247070300,53,103,89,78,81,15137,2147753865,2147420315,2148010395,2147874358,2147644187,2147055003,2148261046,2147200466,3527,5,13,10609
1351834030,5809,1002.6199951171875000,47.9903984069824200,674.2136230468750000,4.1589069366455080,54.0014991760253900,52,100,85,78,81,15137,2147759332,2147420918,2148009654,2147872274,2147642980,2147055460,2148260864,2147199634,1695,4,13,30957
1351837630,5809,1006.9199829101562000,48.4001388549804700,675.0714111328125000,4.1305260658264160,53.9580612182617200,53,98,89,79,82,15141,2147756516,2147419638,2148005769,2147871945,2147646061,2147061558,2148258898,2147198710,3396,4,13,28199
1351841230,5807,1004.8499755859375000,48.1305694580078100,673.9470214843750000,4.1677250862121580,53.9795799255371100,53,97,83,80,80,15126,2147758336,2147421037,2148008859,2147871616,2147643072,2147056228,2148263588,2147196425,1277,4,13,48706
1351844830,5810,1003.0399780273438000,47.6420211791992200,673.2493286132812000,4.1908001899719240,54.0408401489257800,53,100,90,79,80,15084,2147755766,2147422080,2148007396,2147873764,2147644937,2147055862,2148260452,2147198134,185,4,13,3422
1351848430,5806,1012.4899902343750000,47.3515396118164060,671.7880859375000000,4.2391109466552730,54.0639495849609400,52,104,89,78,81,15125,2147755236,2147420123,2148009554,2147873947,2147641819,2147057554,2148258825,2147200018,101,4,13,34053
1351852030,5808,1012.7000122070312000,47.4878501892089840,672.0930786132812000,4.2290310859680180,54.0479011535644500,52,99,89,80,81,15128,2147755510,2147420800,2148010102,2147874697,2147643712,2147062473,2148260781,2147199085,6,4,13,26298
1351855630,5807,1005.8900146484375000,47.8329315185546900,673.8591918945312000,4.1706299781799320,54.0209503173828100,53,97,87,79,80,15126,2147757019,2147420150,2148008228,2147873883,2147642176,2147060004,2148260818,2147196187,3298,4,13,17434
1351859230,5807,998.1400146484375000,48.7593383789062500,676.1229248046875000,4.0957221984863280,53.9233207702636700,53,100,88,80,81,15128,2147758116,2147423058,2148011291,2147875730,2147644324,2147056374,2148261275,2147199899,3446,4,13,27358
1351862830,5812,995.8200073242188000,48.3658981323242200,676.5012817382812000,4.0831952095031740,53.9765892028808600,52,97,89,80,81,15127,2147757888,2147421412,2148006125,2147873517,2147646016,2147053942,2148264960,2147196525,392,5,13,18744
1351866430,5805,999.3499755859375000,49.1169013977050800,676.6074218750000000,4.0796809196472170,53.8761711120605500,52,98,85,77,81,15118,2147753709,2147424091,2148011062,2147871597,2147644918,2147056073,2148257728,2147197430,3309,4,13,60705
1351870030,5808,1004.2600097656250000,48.8835906982421900,675.9796752929688000,4.1004619598388670,53.9023590087890600,53,101,88,78,82,15121,2147760576,2147421266,2148008347,2147869312,2147646052,2147056576,2148265234,2147199872,182,4,13,19743
1351873630,5810,1003.2199707031250000,48.0014915466308600,675.2593994140625000,4.1243019104003910,54.0148200988769500,53,100,89,79,82,15118,2147756726,2147424164,2148009481,2147873938,2147642870,2147055808,2148262500,2147200530,3589,4,13,36918
1351877230,5806,1003.1300048828125000,47.9765205383300800,674.8723754882812000,4.1371102333068850,54.0142517089843750,53,97,87,78,81,15114,2147760731,2147420068,2148010825,2147874331,2147642861,2147059154,2148264512,2147196973,3529,4,13,60175
1351880830,5808,1007.5599975585938000,46.9716682434082000,675.1082153320312000,4.1293048858642580,54.1589508056640600,52,100,91,79,80,15114,2147757988,2147420690,2148008146,2147873819,2147643300,2147057142,2148261321,2147198729,141,4,13,33339
1351884430,5806,1014.1500244140625000,48.2801017761230500,673.8527832031250000,4.1708412170410160,53.9543800354003900,52,100,86,79,82,15106,2147758610,2147421248,2148008868,2147874477,2147646811,2147060864,2148260032,2147198180,403,4,13,43037
1351885256,5806,1013.7500000000000000,48.0388603210449200,673.5784301757812000,4.1799159049987790,53.9882087707519500,53,99,88,80,82,15152,2147760649,2147420854,2148009956,2147875382,2147645129,2147058880,2148265773,2147197138,143,4,13,37679
